1495620000.28,3862,15.75,73634.8,4.97,5.07,4.97,0,*40
1495620001.54,3863,15.75,73634.5,4.97,4.97,4.93,0,*4D
1495620002.73,3864,15.75,73634.8,4.97,4.49,4.41,0,*46
1495620003.99,3865,15.75,73632.5,5.01,4.71,4.67,0,*46
1495620005.17,3866,15.75,73628.8,4.99,4.53,4.41,0,*41
1495620006.39,3867,15.75,73638.0,4.97,4.59,4.49,0,*4C
1495620007.59,3868,15.75,73634.3,4.99,4.89,4.75,0,*4F
1495620008.8,3869,15.75,73636.8,4.99,4.97,4.89,0,*42
1495620010.03,3870,15.75,73636.0,4.99,4.79,4.75,0,*49
1495620011.23,3871,15.75,73634.8,4.99,4.79,4.85,0,*47
1495620012.45,3872,15.75,73642.0,5.01,4.59,4.49,0,*46
1495620013.65,3873,15.75,73636.5,5.01,4.45,4.37,0,*43
1495620014.87,3874,15.75,73636.5,5.01,4.31,4.19,0,*4B
1495620016.1,3875,15.75,73638.5,5.01,4.59,4.57,0,*4E
1495620017.3,3876,15.75,73634.8,5.01,5.07,5.07,0,*43
1495620018.46,3877,15.75,73638.0,5.03,5.49,5.49,0,*40
1495620019.64,3878,15.75,73632.5,5.03,5.59,5.59,0,*4F
1495620020.81,3879,15.75,73636.5,5.03,5.59,5.59,0,*4E
1495620022.04,3880,15.75,73638.8,5.09,5.63,5.55,0,*47
1495620023.21,3881,15.75,73632.0,5.11,5.71,5.67,0,*4D
1495620024.43,3882,15.75,73636.8,5.11,5.85,5.81,0,*4D
1495620025.62,3883,15.75,73632.8,5.13,5.71,5.59,0,*40
1495620026.81,3884,15.75,73636.8,5.13,5.29,5.29,0,*4D
1495620028.0,3885,15.75,73638.3,5.13,5.49,5.49,0,*4C
1495620029.23,3886,15.75,73636.8,5.13,5.73,5.73,0,*4F
1495620030.47,3887,15.75,73632.8,5.17,5.77,5.77,0,*4A
1495620031.71,3888,15.75,73636.5,5.17,5.85,5.77,0,*48
1495620032.92,3889,15.75,73636.3,5.17,6.03,6.03,0,*44
1495620034.12,3890,15.75,73638.5,5.17,6.33,6.33,0,*4C
1495620035.36,3891,15.75,73632.5,5.21,6.39,6.39,0,*48
1495620036.6,3892,15.75,73636.8,5.21,6.17,6.13,0,*4F
1495620037.84,3893,15.75,73636.0,5.23,6.51,6.47,0,*4F
1495620039.05,3894,15.75,73636.0,5.25,6.61,6.73,0,*4A
1495620040.22,3895,15.75,73636.8,5.29,6.75,6.75,0,*44
1495620041.41,3896,15.75,73636.3,5.31,6.83,6.83,0,*4E
1495620042.65,3897,15.75,73636.5,5.31,6.65,6.69,0,*43
1495620043.89,3898,15.75,73636.3,5.35,6.29,6.35,0,*49
1495620045.09,3899,15.75,73640.3,5.35,6.29,6.29,0,*45
1495620046.3,3900,15.75,73638.5,5.33,6.29,6.35,0,*4F
1495620047.52,3901,15.75,73638.0,5.37,6.35,6.39,0,*4B
1495620048.7,3902,15.75,73636.3,5.37,6.21,6.29,0,*4C
1495620049.87,3903,15.75,73636.8,5.41,6.11,6.11,0,*44
1495620051.04,3904,15.75,73634.8,5.41,6.11,6.11,0,*43
1495620052.21,3905,15.75,73636.8,5.41,6.11,6.11,0,*42
1495620053.41,3906,15.75,73636.0,5.41,6.17,6.21,0,*44
1495620054.66,3907,15.75,73636.3,5.43,6.47,6.39,0,*4B
1495620055.88,3908,15.75,73634.3,5.43,6.35,6.29,0,*40
1495620057.14,3909,15.75,73636.0,5.43,6.35,6.43,0,*4D
1495620058.39,3910,15.75,73636.3,5.43,6.39,6.47,0,*4D
1495620059.59,3911,15.75,73634.8,5.43,6.29,6.29,0,*45
1495620060.8,3912,15.75,73634.3,5.49,6.61,6.53,0,*4D
1495620062.01,3913,15.75,73634.8,5.49,6.61,6.61,0,*4D
1495620063.23,3914,15.75,73632.5,5.49,6.39,6.43,0,*47
1495620064.44,3915,15.75,73630.3,5.49,6.53,6.61,0,*4A
1495620065.65,3916,15.75,73634.5,5.51,6.75,6.69,0,*4C
1495620066.86,3917,15.75,73634.3,5.53,6.57,6.61,0,*47
1495620068.03,3918,15.75,73632.5,5.53,6.29,6.29,0,*4D
1495620069.23,3919,15.75,73636.5,5.53,6.29,6.35,0,*41
1495620070.4,3920,15.75,73636.0,5.53,6.25,6.25,0,*46
1495620071.65,3921,15.75,73632.3,5.57,6.13,6.13,0,*43
1495620072.83,3922,15.75,73638.0,5.59,6.29,6.33,0,*45
1495620074.07,3923,15.75,73638.0,5.57,6.61,6.65,0,*45
1495620075.29,3924,15.75,73638.3,5.57,6.73,6.83,0,*49
1495620076.48,3925,15.75,73638.5,5.59,6.73,6.83,0,*46
1495620077.7,3926,15.75,73638.3,5.59,6.73,6.73,0,*4A
1495620078.92,3927,15.75,73634.3,5.63,6.65,6.69,0,*4E
1495620080.14,3928,15.75,73634.3,5.61,6.21,6.17,0,*4A
1495620081.38,3929,15.75,73636.0,5.61,6.43,6.43,0,*4E
1495620082.6,3930,15.75,73636.5,5.63,6.65,6.57,0,*45
1495620083.76,3931,15.75,73636.0,5.63,6.75,6.75,0,*45
1495620084.96,3932,15.75,73634.8,5.63,6.97,6.91,0,*40
1495620086.15,3933,15.75,73632.5,5.67,6.87,6.79,0,*42
1495620087.33,3934,15.75,73632.5,5.67,6.25,6.25,0,*44
1495620088.5,3935,15.75,73632.5,5.67,6.25,6.25,0,*45
1495620089.71,3936,15.75,73634.8,5.71,6.17,6.17,0,*41
1495620090.94,3937,15.75,73634.8,5.67,6.39,6.35,0,*4B
1495620092.17,3938,15.75,73634.8,5.69,6.61,6.61,0,*46
1495620093.38,3939,15.75,73636.3,5.71,6.73,6.73,0,*4E
1495620094.54,3940,15.75,73634.5,5.71,7.05,7.05,0,*40
1495620095.78,3941,15.75,73636.8,5.73,7.19,7.23,0,*4A
1495620096.99,3942,15.75,73636.8,5.75,7.11,7.11,0,*46
1495620098.17,3943,15.75,73636.5,5.77,7.01,7.05,0,*41
1495620099.41,3944,15.75,73636.0,5.77,7.15,7.23,0,*47
1495620100.63,3945,15.75,73636.0,5.75,7.11,7.23,0,*40
1495620101.81,3946,15.75,73638.3,5.77,7.05,7.05,0,*40
1495620102.97,3947,15.75,73634.5,5.79,7.05,7.05,0,*4F
1495620104.15,3948,15.75,73632.3,5.79,6.97,6.97,0,*40
1495620105.34,3949,15.75,73634.5,5.79,6.87,6.93,0,*44
1495620106.55,3950,15.75,73632.5,5.81,6.87,6.93,0,*4B
1495620107.75,3951,15.75,73632.5,5.81,7.05,6.97,0,*45
1495620108.96,3952,15.75,73638.5,5.81,6.75,6.87,0,*41
1495620110.18,3953,15.75,73632.5,5.83,6.57,6.65,0,*4E
1495620111.34,3954,15.75,73632.3,5.83,6.75,6.75,0,*48
1495620112.57,3955,15.75,73632.3,5.83,6.87,6.91,0,*4E
1495620113.75,3956,15.75,73638.5,5.85,6.79,6.79,0,*4C
1495620114.92,3957,15.75,73634.3,5.83,6.75,6.79,0,*47
1495620116.15,3958,15.75,73638.5,5.85,6.69,6.69,0,*42
1495620117.33,3959,15.75,73636.8,5.85,6.75,6.79,0,*4F
1495620118.58,3960,15.75,73638.8,5.85,6.87,6.91,0,*4E
1495620119.79,3961,15.75,73636.5,5.85,6.79,6.87,0,*49
1495620120.98,3962,15.75,73638.5,5.85,6.75,6.75,0,*4B
1495620122.24,3963,15.75,73632.0,5.89,6.43,6.47,0,*42
1495620123.46,3964,15.75,73636.3,5.89,6.21,6.13,0,*40
1495620124.66,3965,15.75,73636.5,5.89,6.11,6.11,0,*40
1495620125.92,3966,15.75,73636.3,5.89,5.93,5.93,0,*43
1495620127.13,3967,15.75,73638.8,5.89,6.03,5.99,0,*42
1495620128.32,3968,15.75,73642.3,5.85,6.11,6.07,0,*46
1495620129.52,3969,15.75,73638.3,5.89,6.21,6.11,0,*4F
1495620130.74,3970,15.75,73636.0,5.83,5.81,5.81,0,*4E
1495620131.91,3971,15.75,73642.8,5.83,5.29,5.15,0,*40
1495620133.12,3972,15.75,73638.8,5.85,5.15,5.05,0,*4B
1495620134.29,3973,15.75,73636.0,5.83,5.29,5.19,0,*4E
1495620135.49,3974,15.75,73636.3,5.83,5.59,5.51,0,*42
1495620136.68,3975,15.75,73638.8,5.81,5.37,5.33,0,*4D
1495620137.86,3976,15.75,73636.3,5.81,5.49,5.49,0,*4A
1495620139.1,3977,15.75,73634.0,5.81,5.85,5.81,0,*4F
1495620140.29,3978,15.75,73634.8,5.81,5.49,5.37,0,*4D
1495620141.48,3979,15.75,73632.0,5.81,5.33,5.23,0,*44
1495620142.69,3980,15.75,73632.3,5.77,5.19,5.07,0,*45
1495620143.87,3981,15.75,73636.3,5.77,5.41,5.41,0,*4B
1495620145.04,3982,15.75,73636.0,5.79,5.71,5.71,0,*46
1495620146.25,3983,15.75,73636.5,5.79,5.81,5.77,0,*4E
1495620147.47,3984,15.75,73638.3,5.79,5.81,5.85,0,*44
1495620148.64,3985,15.75,73630.8,5.79,5.59,5.67,0,*4C
1495620149.81,3986,15.75,73638.0,5.79,5.71,5.67,0,*45
1495620151.0,3987,15.75,73634.8,5.77,5.67,5.67,0,*4D
1495620152.2,3988,15.75,73638.3,5.77,5.63,5.67,0,*46
1495620153.39,3989,15.75,73638.8,5.77,5.67,5.63,0,*47
1495620154.63,3990,15.75,73634.3,5.77,5.81,5.81,0,*4B
1495620155.87,3991,15.75,73638.3,5.77,5.89,5.77,0,*4B
1495620157.09,3992,15.75,73638.8,5.77,5.73,5.67,0,*4C
1495620158.28,3993,15.75,73636.0,5.75,5.11,5.05,0,*4F
1495620159.45,3994,15.75,73636.5,5.75,4.37,4.27,0,*4C
1495620160.63,3995,15.75,73638.3,5.75,4.37,4.33,0,*48
1495620161.82,3996,15.75,73636.3,5.73,4.57,4.57,0,*49
1495620163.01,3997,15.75,73634.5,5.71,4.63,4.53,0,*49
1495620164.2,3998,15.75,73638.0,5.71,4.67,4.57,0,*46
1495620165.42,3999,15.75,73638.8,5.69,4.97,4.89,0,*42
1495620166.66,4000,15.75,73638.3,5.69,4.97,4.97,0,*43
1495620167.85,4001,15.75,73636.5,5.69,5.45,5.33,0,*43
1495620169.06,4002,15.75,73636.3,5.67,5.55,5.51,0,*4B
1495620170.25,4003,15.75,73636.0,5.71,5.73,5.67,0,*4C
1495620171.47,4004,15.75,73640.8,5.69,5.55,5.67,0,*46
1495620172.63,4005,15.75,73638.3,5.67,5.37,5.33,0,*4C
1495620173.81,4006,15.75,73640.8,5.67,5.33,5.23,0,*4A
1495620174.99,4007,15.75,73638.8,5.69,5.49,5.49,0,*44
1495620176.2,4008,15.75,73638.5,5.67,5.55,5.51,0,*41
1495620177.38,4009,15.75,73638.0,5.67,5.23,5.23,0,*44
1495620178.59,4010,15.75,73638.3,5.69,5.27,5.15,0,*43
1495620179.81,4011,15.75,73636.8,5.69,5.11,5.05,0,*46
1495620181.01,4012,15.75,73638.8,5.67,5.11,5.01,0,*4F
1495620182.18,4013,15.75,73638.3,5.67,5.29,5.23,0,*45
1495620183.34,4014,15.75,73638.5,5.67,4.85,4.81,0,*4C
1495620184.53,4015,15.75,73638.0,5.67,5.15,4.97,0,*42
1495620185.7,4016,15.75,73636.5,5.63,5.15,5.07,0,*4D
1495620186.9,4017,15.75,73638.3,5.61,5.19,5.19,0,*4D
1495620188.12,4018,15.75,73636.3,5.61,5.15,5.05,0,*43
1495620189.3,4019,15.75,73636.8,5.61,5.37,5.29,0,*4C
1495620190.49,4020,15.75,73636.3,5.61,5.37,5.37,0,*49
1495620191.68,4021,15.75,73640.0,5.61,5.41,5.41,0,*48
1495620192.89,4022,15.75,73640.0,5.61,5.51,5.49,0,*42
1495620194.08,4023,15.75,73636.8,5.61,5.67,5.63,0,*4E
1495620195.25,4024,15.75,73640.3,5.63,5.63,5.63,0,*4F
1495620196.46,4025,15.75,73640.0,5.63,5.77,5.73,0,*4A
1495620197.63,4026,15.75,73638.8,5.63,5.99,5.99,0,*4D
1495620198.85,4027,15.75,73638.5,5.63,5.89,5.89,0,*4C
1495620200.07,4028,15.75,73636.0,5.61,5.85,5.95,0,*40
1495620201.24,4029,15.75,73640.8,5.63,5.95,5.95,0,*42
1495620202.46,4030,15.75,73636.5,5.69,6.13,5.99,0,*41
1495620203.67,4031,15.75,73638.5,5.63,5.73,5.73,0,*4B
1495620204.86,4032,15.75,73636.3,5.69,5.71,5.67,0,*45
1495620206.03,4033,15.75,73638.3,5.67,5.41,5.33,0,*48
1495620207.23,4034,15.75,73636.0,5.63,4.89,4.79,0,*41
1495620208.47,4035,15.75,73636.0,5.61,4.79,4.67,0,*42
1495620209.66,4036,15.75,73642.8,5.63,4.59,4.49,0,*4D
1495620210.91,4037,15.75,73636.8,5.61,4.79,4.67,0,*40
1495620212.15,4038,15.75,73640.3,5.61,4.71,4.59,0,*4A
1495620213.37,4039,15.75,73640.5,5.61,4.89,4.79,0,*4E
1495620214.59,4040,15.75,73640.0,5.59,4.79,4.63,0,*4F
1495620215.79,4041,15.75,73640.3,5.59,4.85,4.79,0,*46
1495620216.98,4042,15.75,73636.8,5.57,4.85,4.85,0,*48
1495620218.18,4043,15.75,73638.8,5.59,4.85,4.79,0,*44
1495620219.37,4044,15.75,73638.8,5.53,5.07,4.97,0,*42
1495620220.57,4045,15.75,73638.0,5.57,5.23,5.11,0,*4E
1495620221.77,4046,15.81,73642.5,5.57,5.15,5.15,0,*4C
1495620222.92,4047,15.75,73638.5,5.53,5.29,5.29,0,*49
1495620224.08,4048,15.75,73638.5,5.53,5.45,5.45,0,*46
1495620225.27,4049,15.75,73640.3,5.57,5.37,5.33,0,*47
1495620226.49,4050,15.75,73640.0,5.57,5.33,5.27,0,*4E
1495620227.71,4051,15.75,73640.0,5.57,5.27,5.23,0,*4E
1495620228.93,4052,15.75,73638.8,5.57,5.23,5.27,0,*4D
1495620230.14,4053,15.75,73642.0,5.57,5.27,5.33,0,*4D
1495620231.32,4054,15.75,73642.3,5.53,5.11,5.11,0,*4B
1495620232.54,4055,15.75,73636.3,5.51,4.93,4.85,0,*4F
1495620233.76,4056,15.81,73642.8,5.51,4.81,4.79,0,*4C
1495620234.92,4057,15.75,73638.3,5.53,4.89,4.81,0,*40
1495620236.12,4058,15.75,73642.8,5.51,5.07,5.07,0,*45
1495620237.32,4059,15.75,73640.3,5.51,5.15,5.07,0,*47
1495620238.57,4060,15.75,73640.0,5.51,4.97,4.97,0,*4E
1495620239.79,4061,15.75,73638.5,5.53,4.63,4.63,0,*4D
1495620241.05,4062,15.75,73640.8,5.51,4.71,4.67,0,*4B
1495620242.28,4063,15.75,73638.5,5.51,4.71,4.57,0,*49
1495620243.5,4064,15.75,73640.3,5.51,4.59,4.57,0,*44
1495620244.67,4065,15.75,73642.5,5.45,4.53,4.45,0,*49
1495620245.84,4066,15.75,73638.5,5.45,4.57,4.57,0,*4D
1495620247.01,4067,15.75,73642.3,5.45,4.45,4.41,0,*48
1495620248.18,4068,15.75,73642.3,5.45,4.19,4.07,0,*4C
1495620249.39,4069,15.75,73642.0,5.43,4.07,3.93,0,*4E
1495620250.61,4070,15.75,73638.0,5.43,4.37,4.31,0,*4A
1495620251.82,4071,15.75,73638.8,5.43,4.53,4.41,0,*4E
1495620252.98,4072,15.75,73642.3,5.41,4.45,4.49,0,*40
1495620254.15,4073,15.75,73640.0,5.41,4.45,4.37,0,*48
1495620255.37,4074,15.75,73642.5,5.41,4.67,4.59,0,*47
1495620256.6,4075,15.75,73642.3,5.41,4.71,4.71,0,*4B
1495620257.85,4076,15.75,73642.8,5.43,4.75,4.71,0,*4E
1495620259.08,4077,15.75,73636.5,5.41,4.71,4.59,0,*43
1495620260.25,4078,15.75,73640.5,5.41,4.27,4.15,0,*47
1495620261.42,4079,15.75,73636.3,5.41,4.27,4.23,0,*43
1495620262.59,4080,15.75,73642.5,5.41,4.33,4.27,0,*44
1495620263.75,4081,15.75,73640.5,5.41,4.57,4.45,0,*43
1495620264.95,4082,15.75,73642.3,5.41,4.59,4.45,0,*4E
1495620266.15,4083,15.75,73640.8,5.41,4.67,4.57,0,*41
1495620267.32,4084,15.75,73640.8,5.41,4.57,4.45,0,*46
1495620268.52,4085,15.75,73638.5,5.37,4.63,4.57,0,*42
1495620269.71,4086,15.75,73640.0,5.37,4.63,4.45,0,*42
1495620270.91,4087,15.75,73640.3,5.37,4.63,4.53,0,*44
1495620272.08,4088,15.75,73642.8,5.37,4.45,4.41,0,*4C
1495620273.26,4089,15.75,73642.5,5.37,4.33,4.23,0,*48
1495620274.43,4090,15.75,73642.0,5.37,4.23,4.07,0,*47
1495620275.6,4091,15.75,73642.8,5.37,4.41,4.41,0,*40
1495620276.77,4092,15.75,73642.8,5.37,4.23,4.19,0,*4A
1495620278.0,4093,15.75,73640.3,5.35,4.15,3.97,0,*4D
1495620279.19,4094,15.75,73638.5,5.33,3.97,3.93,0,*45
1495620280.36,4095,15.75,73638.8,5.33,4.41,4.37,0,*41
1495620281.59,4096,15.75,73644.3,5.35,4.41,4.31,0,*42
1495620282.79,4097,15.75,73642.3,5.33,4.37,4.31,0,*44
1495620283.99,4098,15.75,73642.0,5.35,4.37,4.19,0,*47
1495620285.18,4099,15.75,73642.5,5.33,4.41,4.31,0,*4B
1495620286.36,4100,15.75,73638.5,5.33,4.37,4.27,0,*4C
1495620287.53,4101,15.75,73636.5,5.33,4.27,4.07,0,*4E
1495620288.73,4102,15.75,73638.8,5.31,3.81,3.81,0,*4D
1495620289.95,4103,15.75,73642.0,5.29,3.79,3.67,0,*4A
1495620291.15,4104,15.75,73636.3,5.29,3.41,3.29,0,*4C
1495620292.37,4105,15.75,73642.8,5.29,3.41,3.23,0,*47
1495620293.56,4106,15.75,73636.3,5.25,3.97,3.85,0,*4F
1495620294.73,4107,15.75,73636.0,5.25,4.53,4.45,0,*4A
1495620295.91,4108,15.75,73632.8,5.25,4.57,4.57,0,*42
1495620297.08,4109,15.75,73632.0,5.25,4.53,4.45,0,*44
1495620298.27,4110,15.75,73632.0,5.23,3.85,3.97,0,*4E
1495620299.44,4111,15.75,73634.0,5.23,3.85,3.81,0,*48
1495620300.62,4112,15.75,73630.8,5.23,3.85,3.81,0,*4B
1495620301.81,4113,15.75,73632.8,5.23,4.07,4.05,0,*4C
1495620302.98,4114,15.75,73628.8,5.23,4.19,4.19,0,*49
1495620304.17,4115,15.75,73628.5,5.21,4.41,4.37,0,*4B
1495620305.36,4116,15.75,73630.8,5.21,4.53,4.49,0,*42
1495620306.55,4117,15.75,73628.5,5.21,4.53,4.49,0,*43
1495620307.75,4118,15.75,73632.8,5.21,4.57,4.53,0,*43
1495620308.94,4119,15.75,73630.5,5.21,4.53,4.53,0,*46
1495620310.19,4120,15.75,73630.8,5.21,4.75,4.67,0,*4F
1495620311.41,4121,15.75,73634.3,5.23,4.79,4.75,0,*43
1495620312.61,4122,15.75,73634.5,5.25,4.89,4.79,0,*45
1495620313.78,4123,15.75,73632.0,5.23,4.89,4.89,0,*4D
1495620315.0,4124,15.75,73632.5,5.23,4.67,4.63,0,*4E
1495620316.22,4125,15.75,73636.0,5.23,4.67,4.67,0,*4B
1495620317.45,4126,15.75,73636.5,5.23,4.75,4.75,0,*48
1495620318.67,4127,15.75,73636.5,5.23,4.79,4.75,0,*45
1495620319.85,4128,15.75,73636.3,5.25,4.85,4.85,0,*40
1495620321.02,4129,15.75,73636.5,5.25,4.89,4.81,0,*49
1495620322.21,4130,15.75,73636.5,5.23,4.85,4.79,0,*4C
1495620323.44,4131,15.75,73638.0,5.23,4.97,4.97,0,*4E
1495620324.66,4132,15.75,73638.8,5.25,4.79,4.79,0,*4B
1495620325.86,4133,15.75,73634.0,5.23,4.67,4.57,0,*4F
1495620327.09,4134,15.81,73642.3,5.29,4.97,4.97,0,*41
1495620328.26,4135,15.75,73638.0,5.25,4.89,4.81,0,*44
1495620329.49,4136,15.75,73634.5,5.23,5.01,5.01,0,*49
1495620330.66,4137,15.75,73634.0,5.23,5.11,5.07,0,*4F
1495620331.84,4138,15.75,73634.0,5.25,5.11,5.11,0,*41
1495620333.03,4139,15.75,73638.3,5.25,5.29,5.27,0,*4E
1495620334.22,4140,15.75,73638.5,5.25,5.51,5.41,0,*4F
1495620335.39,4141,15.75,73638.0,5.25,5.41,5.41,0,*4F
1495620336.56,4142,15.75,73638.0,5.25,5.41,5.37,0,*4D
1495620337.72,4143,15.75,73638.8,5.29,5.45,5.45,0,*41
1495620338.93,4144,15.75,73636.8,5.29,5.27,5.27,0,*46
1495620340.12,4145,15.75,73632.8,5.29,5.27,5.15,0,*46
1495620341.33,4146,15.75,73634.5,5.31,5.19,5.19,0,*4D
1495620342.51,4147,15.75,73632.3,5.29,5.19,5.19,0,*45
1495620343.77,4148,15.75,73632.3,5.31,4.71,4.75,0,*47
1495620344.96,4149,15.75,73630.3,5.31,4.85,4.85,0,*42
1495620346.14,4150,15.75,73634.0,5.29,5.15,5.19,0,*4F
1495620347.36,4151,15.75,73630.0,5.31,5.27,5.19,0,*46
1495620348.55,4152,15.75,73632.0,5.31,5.15,5.15,0,*48
1495620349.78,4153,15.75,73628.5,5.29,4.97,4.97,0,*40
1495620350.98,4154,15.75,73630.8,5.31,5.19,5.15,0,*42
1495620352.16,4155,15.75,73636.8,5.33,5.23,5.23,0,*4D
1495620353.36,4156,15.75,73640.0,5.31,5.41,5.33,0,*49
1495620354.55,4157,15.75,73638.0,5.31,5.33,5.41,0,*48
1495620355.75,4158,15.75,73636.5,5.29,5.07,5.05,0,*49
1495620356.97,4159,15.75,73636.8,5.33,5.01,4.97,0,*4F
1495620358.2,4160,15.75,73638.3,5.33,4.79,4.75,0,*47
1495620359.44,4161,15.75,73632.8,5.31,4.63,4.59,0,*41
1495620360.66,4162,15.75,73634.0,5.31,4.15,4.01,0,*4E
1495620361.88,4163,15.75,73636.0,5.31,4.01,3.89,0,*4D
1495620363.08,4164,15.75,73632.0,5.29,3.81,3.75,0,*4F
1495620364.28,4165,15.75,73636.3,5.29,4.15,4.05,0,*44
1495620365.44,4166,15.75,73638.0,5.29,4.49,4.45,0,*4A
1495620366.62,4167,15.75,73636.0,5.25,4.53,4.41,0,*48
1495620367.8,4168,15.75,73638.8,5.23,4.53,4.41,0,*41
1495620369.0,4169,15.75,73636.8,5.25,4.59,4.53,0,*4F
1495620370.2,4170,15.75,73632.5,5.25,4.67,4.57,0,*4E
1495620371.4,4171,15.75,73632.8,5.25,4.31,4.23,0,*4F
1495620372.58,4172,15.75,73634.5,5.25,4.53,4.41,0,*4C
1495620373.77,4173,15.75,73634.8,5.23,4.15,4.05,0,*49
1495620374.97,4174,15.75,73636.8,5.25,4.11,4.01,0,*48
1495620376.14,4175,15.75,73636.0,5.23,4.19,4.07,0,*41
1495620377.32,4176,15.81,73638.8,5.23,4.27,4.07,0,*4F
1495620378.51,4177,15.75,73638.5,5.23,4.15,4.05,0,*4D
1495620379.71,4178,15.75,73632.3,5.21,4.19,4.07,0,*4E
1495620380.89,4179,15.75,73632.3,5.21,4.57,4.49,0,*4F
1495620382.11,4180,15.75,73632.8,5.21,4.31,4.27,0,*41
1495620383.31,4181,15.75,73634.8,5.19,4.15,4.01,0,*49
1495620384.5,4182,15.75,73632.0,5.21,4.37,4.19,0,*48
1495620385.68,4183,15.75,73634.3,5.21,4.49,4.27,0,*4D
1495620386.85,4184,15.75,73634.5,5.19,4.53,4.49,0,*42
1495620388.1,4185,15.75,73638.8,5.21,4.75,4.75,0,*43
1495620389.35,4186,15.75,73634.0,5.21,5.01,5.01,0,*40
1495620390.57,4187,15.75,73638.0,5.21,5.07,4.97,0,*49
1495620391.82,4188,15.75,73636.8,5.21,4.79,4.79,0,*4E
1495620393.04,4189,15.75,73634.8,5.21,4.89,4.79,0,*40
1495620394.21,4190,15.75,73636.3,5.23,5.23,5.11,0,*44
1495620395.39,4191,15.75,73636.5,5.23,5.19,5.11,0,*4C
1495620396.6,4192,15.75,73636.3,5.23,5.27,5.27,0,*47
1495620397.77,4193,15.75,73638.5,5.25,5.41,5.29,0,*4E
1495620398.94,4194,15.75,73636.8,5.25,5.37,5.37,0,*47
1495620400.12,4195,15.75,73636.5,5.29,5.19,5.15,0,*46
1495620401.29,4196,15.75,73634.8,5.25,4.33,4.19,0,*4D
1495620402.48,4197,15.75,73632.3,5.23,4.31,4.27,0,*45
1495620403.65,4198,15.75,73634.3,5.23,4.53,4.49,0,*46
1495620404.84,4199,15.75,73634.3,5.23,4.85,4.67,0,*40
1495620406.04,4200,15.75,73634.0,5.25,5.11,5.05,0,*4C
1495620407.22,4201,15.75,73638.0,5.23,5.11,5.11,0,*4E
1495620408.41,4202,15.75,73636.8,5.25,5.29,5.27,0,*45
1495620409.61,4203,15.75,73638.3,5.25,5.11,5.05,0,*4F
1495620410.81,4204,15.75,73636.3,5.25,5.11,5.01,0,*4C
1495620412.01,4205,15.75,73638.8,5.25,4.71,4.89,0,*4B
1495620413.18,4206,15.75,73638.5,5.25,5.29,5.29,0,*4F
1495620414.4,4207,15.75,73630.5,5.25,5.51,5.51,0,*4E
1495620415.57,4208,15.75,73636.8,5.25,5.63,5.63,0,*41
1495620416.79,4209,15.75,73636.0,5.29,5.89,5.89,0,*4C
1495620418.01,4210,15.75,73634.8,5.29,5.73,5.77,0,*40
1495620419.18,4211,15.75,73630.0,5.29,5.33,5.33,0,*45
1495620420.43,4212,15.75,73634.0,5.31,5.05,5.05,0,*4F
1495620421.62,4213,15.75,73634.3,5.31,4.45,4.45,0,*4E
1495620422.79,4214,15.75,73634.3,5.29,4.11,4.11,0,*40
1495620423.96,4215,15.75,73628.8,5.29,4.49,4.37,0,*48
1495620425.16,4216,15.75,73632.0,5.29,4.81,4.71,0,*4D
1495620426.33,4217,15.75,73634.0,5.29,5.07,5.07,0,*43
1495620427.51,4218,15.75,73636.3,5.29,5.07,5.07,0,*4C
1495620428.69,4219,15.75,73634.5,5.29,5.19,5.19,0,*4D
1495620429.85,4220,15.75,73632.3,5.29,5.45,5.45,0,*47
1495620431.03,4221,15.75,73636.3,5.31,5.45,5.45,0,*4F
1495620432.23,4222,15.75,73632.8,5.31,5.15,5.07,0,*4F
1495620433.45,4223,15.75,73634.0,5.33,4.67,4.59,0,*42
1495620434.65,4224,15.75,73632.8,5.31,4.37,4.27,0,*4B
1495620435.85,4225,15.75,73636.5,5.29,4.59,4.57,0,*4C
1495620437.03,4226,15.75,73636.5,5.29,4.37,4.33,0,*45
1495620438.23,4227,15.75,73638.0,5.25,4.33,4.31,0,*4E
1495620439.39,4228,15.75,73632.8,5.29,4.49,4.49,0,*4F
1495620440.55,4229,15.75,73632.3,5.29,4.49,4.49,0,*4E
1495620441.72,4230,15.75,73632.5,5.29,4.49,4.45,0,*4A
1495620442.88,4231,15.75,73632.0,5.29,4.33,4.23,0,*46
1495620444.08,4232,15.75,73634.5,5.25,3.89,3.79,0,*47
1495620445.25,4233,15.75,73636.8,5.23,3.93,3.85,0,*48
1495620446.45,4234,15.75,73638.8,5.25,4.31,4.23,0,*4D
1495620447.65,4235,15.75,73634.0,5.23,4.31,4.27,0,*4E
1495620448.85,4236,15.75,73638.5,5.25,4.31,4.15,0,*4A
1495620450.07,4237,15.75,73636.8,5.23,4.75,4.67,0,*48
1495620451.26,4238,15.75,73636.8,5.23,5.07,4.97,0,*4C
1495620452.48,4239,15.81,73636.3,5.23,4.67,4.67,0,*45
1495620453.66,4240,15.75,73634.3,5.25,3.89,3.89,0,*4D
1495620454.88,4241,15.75,73628.8,5.25,3.49,3.37,0,*45
1495620456.1,4242,15.75,73632.3,5.21,3.75,3.59,0,*45
1495620457.29,4243,15.75,73634.0,5.21,4.41,4.19,0,*47
1495620458.48,4244,15.75,73634.0,5.21,4.49,4.41,0,*45
1495620459.7,4245,15.75,73630.5,5.21,4.15,4.05,0,*4D
1495620460.89,4246,15.75,73632.8,5.19,3.63,3.23,0,*40
1495620462.09,4247,15.75,73632.5,5.19,2.61,2.01,0,*43
1495620463.32,4248,15.75,73630.8,5.15,2.43,1.85,0,*4F
1495620464.52,4249,15.81,73632.0,5.13,2.69,2.31,0,*4C
1495620465.75,4250,15.75,73632.3,5.11,2.85,2.51,0,*42
1495620466.94,4251,15.75,73634.0,5.07,2.95,2.73,0,*45
1495620468.14,4252,15.75,73632.0,5.07,3.29,3.11,0,*45
1495620469.34,4253,15.81,73634.3,5.03,2.95,2.59,0,*4B
1495620470.53,4254,15.75,73634.8,5.03,2.31,1.97,0,*43
1495620471.78,4255,15.75,73628.8,5.01,1.25,0.91,0,*71
1495620473.02,4256,15.75,73630.3,4.97,2.13,1.89,0,*42
1495620474.27,4257,15.75,73630.0,4.97,2.85,2.73,0,*4A
1495620475.48,4258,15.75,73630.8,4.97,3.29,3.19,0,*4F
1495620476.69,4259,15.75,73630.3,4.99,3.71,3.59,0,*49
1495620477.93,4260,15.75,73630.3,4.97,4.05,4.01,0,*43
1495620479.15,4261,15.75,73628.8,4.97,4.01,3.93,0,*4A
1495620480.36,4262,15.75,73630.5,4.99,3.85,3.75,0,*44
1495620481.58,4263,15.75,73632.8,4.97,4.11,4.01,0,*45
1495620482.81,4264,15.75,73634.0,4.97,4.05,3.89,0,*40
1495620484.05,4265,15.75,73632.3,4.97,4.01,3.79,0,*4A
1495620485.25,4266,15.75,73632.0,4.99,4.07,4.05,0,*4D
1495620486.48,4267,15.75,73624.8,4.97,3.59,3.49,0,*41
1495620487.7,4268,15.75,73630.3,4.97,3.55,3.41,0,*4A
1495620488.94,4269,15.75,73632.5,4.97,3.23,3.19,0,*47
1495620490.16,4270,15.75,73634.8,4.97,3.19,2.99,0,*4F
1495620491.4,4271,15.81,73636.5,4.97,2.01,1.55,0,*45
1495620492.63,4272,15.75,73638.3,4.93,2.35,2.25,0,*41
1495620493.85,4273,15.75,73634.3,4.91,2.85,2.65,0,*4D
1495620495.09,4274,15.75,73630.8,4.91,2.13,1.97,0,*4B
1495620496.33,4275,15.75,73634.8,4.91,2.25,2.09,0,*4B
1495620497.56,4276,15.81,73634.3,4.89,2.17,2.05,0,*4C
1495620498.75,4277,15.75,73630.8,4.89,2.51,2.31,0,*48
1495620499.95,4278,15.75,73634.3,4.87,2.61,2.61,0,*4F
1495620501.19,4279,15.75,73630.5,4.87,3.19,3.11,0,*46
1495620502.44,4280,15.75,73630.0,4.87,3.49,3.37,0,*41
1495620503.69,4281,15.75,73628.5,4.87,3.71,3.67,0,*4E
1495620504.89,4282,15.81,73628.5,4.87,3.89,3.89,0,*4A
1495620506.09,4283,15.75,73630.5,4.87,4.19,4.15,0,*47
1495620507.28,4284,15.81,73632.3,4.91,4.23,4.19,0,*42
1495620508.47,4285,15.81,73632.5,4.89,4.31,4.23,0,*40
1495620509.63,4286,15.75,73632.5,4.89,4.19,4.19,0,*40
1495620510.82,4287,15.75,73634.3,4.89,4.07,4.01,0,*47
1495620512.05,4288,15.81,73634.8,4.91,3.89,3.79,0,*48
1495620513.26,4289,15.75,73630.5,4.91,3.85,3.79,0,*45
1495620514.43,4290,15.75,73628.3,4.89,3.85,3.85,0,*47
1495620515.65,4291,15.75,73634.8,4.91,3.79,3.63,0,*44
1495620516.89,4292,15.75,73632.5,4.91,4.01,3.97,0,*44
1495620518.08,4293,15.81,73632.8,4.91,3.89,3.85,0,*41
1495620519.31,4294,15.75,73630.3,4.91,3.89,3.75,0,*49
1495620520.5,4295,15.75,73628.3,4.91,4.33,4.27,0,*4E
1495620521.7,4296,15.75,73628.5,4.93,4.57,4.49,0,*45
1495620522.89,4297,15.75,73634.3,4.93,4.81,4.81,0,*4B
1495620524.13,4298,15.75,73630.3,4.95,5.01,4.97,0,*4C
1495620525.32,4299,15.75,73634.8,4.93,4.81,4.89,0,*4D
1495620526.5,4300,15.75,73634.3,4.95,4.81,4.81,0,*42
1495620527.67,4301,15.75,73632.3,4.95,4.27,4.23,0,*47
1495620528.9,4302,15.75,73634.3,4.95,3.11,2.85,0,*4C
1495620530.11,4303,15.75,73630.5,4.95,3.07,2.99,0,*47
1495620531.33,4304,15.75,73632.8,4.95,3.49,3.45,0,*4A
1495620532.53,4305,15.75,73636.5,4.95,3.81,3.79,0,*40
1495620533.71,4306,15.75,73632.8,4.95,4.23,4.15,0,*41